| time (UTC) | temp F | wind direction | speed MPH | gust MPH | rain 1hr in | rain 24hr in | rain mn in | humidity % | barometer mb |
| 20260507191515 | 77 | 302 | 5.0 | 11.0 | 0.00 | 0.00 | 0.00 | 46 | 1016.9 |
| 20260507190515 | 81 | 210 | 2.0 | 6.0 | 0.00 | 0.00 | 0.00 | 46 | 1017.1 |
| 20260507185537 | 79 | 236 | 2.0 | 9.0 | 0.00 | 0.00 | 0.00 | 46 | 1017.2 |
| 20260507184517 | 79 | 205 | 2.0 | 11.0 | 0.00 | 0.00 | 0.00 | 46 | 1017.2 |
| 20260507183517 | 79 | 205 | 3.0 | 11.0 | 0.00 | 0.00 | 0.00 | 46 | 1017.2 |
| 20260507182517 | 78 | 212 | 3.0 | 10.0 | 0.00 | 0.00 | 0.00 | 46 | 1017.1 |
| 20260507181520 | 77 | 224 | 2.0 | 9.0 | 0.00 | 0.00 | 0.00 | 46 | 1017.1 |
| 20260507180517 | 77 | 224 | 4.0 | 10.0 | 0.00 | 0.00 | 0.00 | 46 | 1017.2 |
| 20260507175516 | 76 | 239 | 3.0 | 9.0 | 0.00 | 0.00 | 0.00 | 46 | 1017.3 |
| 20260507174515 | 77 | 245 | 3.0 | 10.0 | 0.00 | 0.00 | 0.00 | 46 | 1017.3 |
| 20260507173537 | 75 | 234 | 3.0 | 8.0 | 0.00 | 0.00 | 0.00 | 46 | 1017.4 |
| 20260507172516 | 76 | 234 | 2.0 | 8.0 | 0.00 | 0.00 | 0.00 | 46 | 1017.4 |
| 20260507171517 | 74 | 248 | 3.0 | 10.0 | 0.00 | 0.00 | 0.00 | 46 | 1017.5 |
| 20260507170537 | 74 | 199 | 3.0 | 10.0 | 0.00 | 0.00 | 0.00 | 45 | 1017.7 |
| 20260507165516 | 74 | 226 | 2.0 | 9.0 | 0.00 | 0.00 | 0.00 | 45 | 1017.8 |
| 20260507164517 | 72 | 228 | 2.0 | 7.0 | 0.00 | 0.00 | 0.00 | 45 | 1017.8 |
| 20260507163537 | 72 | 268 | 1.0 | 9.0 | 0.00 | 0.00 | 0.00 | 45 | 1017.8 |
| 20260507162515 | 69 | 279 | 3.0 | 11.0 | 0.00 | 0.00 | 0.00 | 45 | 1017.8 |
| 20260507161539 | 67 | 299 | 5.0 | 15.0 | 0.00 | 0.00 | 0.00 | 45 | 1017.9 |
| 20260507160515 | 68 | 299 | 2.0 | 8.0 | 0.00 | 0.00 | 0.00 | 45 | 1018.0 |
| 20260507155516 | 69 | 238 | 2.0 | 9.0 | 0.00 | 0.00 | 0.00 | 45 | 1018.0 |
| 20260507154517 | 68 | 228 | 2.0 | 7.0 | 0.00 | 0.00 | 0.00 | 45 | 1017.9 |
| 20260507153515 | 66 | 312 | 2.0 | 11.0 | 0.00 | 0.00 | 0.00 | 45 | 1017.8 |
| 20260507152515 | 67 | 246 | 2.0 | 9.0 | 0.00 | 0.00 | 0.00 | 45 | 1017.7 |
| 20260507151517 | 66 | 259 | 1.0 | 4.0 | 0.00 | 0.00 | 0.00 | 45 | 1017.7 |
| 20260507150521 | 64 | 330 | 3.0 | 9.0 | 0.00 | 0.00 | 0.00 | 45 | 1017.7 |
| 20260507145515 | 63 | 290 | 0.0 | 4.0 | 0.00 | 0.00 | 0.00 | 45 | 1017.7 |
| 20260507144515 | 62 | 47 | 1.0 | 5.0 | 0.00 | 0.00 | 0.00 | 45 | 1017.7 |
| 20260507143518 | 61 | 69 | 1.0 | 5.0 | 0.00 | 0.00 | 0.00 | 45 | 1017.4 |
| 20260507142517 | 60 | 132 | 1.0 | 4.0 | 0.00 | 0.00 | 0.00 | 44 | 1017.2 |
| 20260507141516 | 58 | 124 | 1.0 | 3.0 | 0.00 | 0.00 | 0.00 | 44 | 1017.1 |
| 20260507140515 | 58 | 102 | 4.0 | 8.0 | 0.00 | 0.00 | 0.00 | 44 | 1017.0 |
| 20260507135515 | 57 | 110 | 5.0 | 8.0 | 0.00 | 0.00 | 0.00 | 44 | 1017.1 |
| 20260507134515 | 56 | 114 | 7.0 | 13.0 | 0.00 | 0.00 | 0.00 | 44 | 1017.0 |
| 20260507133517 | 56 | 112 | 1.0 | 9.0 | 0.00 | 0.00 | 0.00 | 45 | 1016.9 |
| 20260507132515 | 56 | 141 | 3.0 | 8.0 | 0.00 | 0.00 | 0.00 | 45 | 1016.8 |
| 20260507131516 | 55 | 144 | 4.0 | 7.0 | 0.00 | 0.00 | 0.00 | 45 | 1016.6 |
| 20260507130516 | 55 | 144 | 1.0 | 5.0 | 0.00 | 0.00 | 0.00 | 45 | 1016.6 |
| 20260507125517 | 56 | 282 | 3.0 | 6.0 | 0.00 | 0.00 | 0.00 | 45 | 1016.5 |
| 20260507124537 | 55 | 117 | 1.0 | 4.0 | 0.00 | 0.00 | 0.00 | 45 | 1016.6 |
| 20260507123517 | 56 | 182 | 3.0 | 10.0 | 0.00 | 0.00 | 0.00 | 45 | 1016.3 |
| 20260507122515 | 56 | 231 | 2.0 | 8.0 | 0.00 | 0.00 | 0.00 | 45 | 1016.3 |
| 20260507121517 | 57 | 258 | 2.0 | 8.0 | 0.00 | 0.00 | 0.00 | 45 | 1016.2 |
| 20260507120515 | 57 | 220 | 3.0 | 12.0 | 0.00 | 0.00 | 0.00 | 45 | 1016.0 |
| 20260507115517 | 57 | 238 | 3.0 | 10.0 | 0.00 | 0.00 | 0.00 | 45 | 1015.9 |
| 20260507114519 | 57 | 261 | 2.0 | 8.0 | 0.00 | 0.00 | 0.00 | 45 | 1016.0 |
| 20260507113515 | 56 | 210 | 2.0 | 8.0 | 0.00 | 0.00 | 0.00 | 45 | 1015.9 |
| 20260507112516 | 57 | 200 | 2.0 | 9.0 | 0.00 | 0.00 | 0.00 | 45 | 1015.8 |
| 20260507111518 | 57 | 194 | 2.0 | 7.0 | 0.00 | 0.00 | 0.00 | 45 | 1015.8 |
| 20260507110517 | 57 | 210 | 2.0 | 9.0 | 0.00 | 0.00 | 0.00 | 45 | 1015.7 |
| 20260507105516 | 57 | 177 | 2.0 | 10.0 | 0.00 | 0.00 | 0.00 | 45 | 1015.8 |
| 20260507104535 | 57 | 161 | 1.0 | 5.0 | 0.00 | 0.00 | 0.00 | 45 | 1015.7 |
| 20260507103536 | 57 | 201 | 2.0 | 6.0 | 0.00 | 0.00 | 0.00 | 45 | 1015.8 |
| 20260507102536 | 57 | 207 | 3.0 | 8.0 | 0.00 | 0.00 | 0.00 | 45 | 1015.7 |
| 20260507101518 | 57 | 195 | 3.0 | 11.0 | 0.00 | 0.00 | 0.00 | 45 | 1015.8 |
| 20260507100518 | 57 | 210 | 2.0 | 10.0 | 0.00 | 0.00 | 0.00 | 45 | 1015.8 |
| 20260507095517 | 57 | 204 | 2.0 | 6.0 | 0.00 | 0.00 | 0.00 | 45 | 1015.8 |
| 20260507094515 | 57 | 203 | 2.0 | 7.0 | 0.00 | 0.00 | 0.00 | 45 | 1015.7 |
| 20260507093517 | 57 | 187 | 2.0 | 10.0 | 0.00 | 0.00 | 0.00 | 45 | 1015.8 |
| 20260507092516 | 57 | 188 | 1.0 | 4.0 | 0.00 | 0.00 | 0.00 | 45 | 1015.8 |
| 20260507091519 | 58 | 179 | 1.0 | 8.0 | 0.00 | 0.00 | 0.00 | 46 | 1015.7 |
| 20260507090537 | 58 | 198 | 1.0 | 6.0 | 0.00 | 0.00 | 0.00 | 46 | 1015.7 |
| 20260507085515 | 59 | 199 | 1.0 | 8.0 | 0.00 | 0.00 | 0.00 | 46 | 1015.6 |
| 20260507084517 | 59 | 190 | 2.0 | 9.0 | 0.00 | 0.00 | 0.00 | 46 | 1015.4 |
| 20260507083515 | 59 | 209 | 3.0 | 10.0 | 0.00 | 0.00 | 0.00 | 46 | 1015.3 |
| 20260507082535 | 59 | 198 | 1.0 | 6.0 | 0.00 | 0.00 | 0.00 | 46 | 1015.4 |
| 20260507081536 | 59 | 164 | 1.0 | 9.0 | 0.00 | 0.00 | 0.00 | 46 | 1015.3 |
| 20260507080516 | 60 | 219 | 2.0 | 9.0 | 0.00 | 0.00 | 0.00 | 46 | 1015.2 |
| 20260507075519 | 61 | 235 | 2.0 | 8.0 | 0.00 | 0.00 | 0.00 | 46 | 1015.3 |
| 20260507074518 | 61 | 293 | 1.0 | 6.0 | 0.00 | 0.00 | 0.00 | 46 | 1015.3 |
| 20260507073516 | 61 | 114 | 0.0 | 1.0 | 0.00 | 0.00 | 0.00 | 46 | 1015.3 |
| 20260507072519 | 61 | 209 | 2.0 | 10.0 | 0.00 | 0.00 | 0.00 | 46 | 1014.9 |
| 20260507071518 | 62 | 269 | 1.0 | 7.0 | 0.00 | 0.00 | 0.00 | 46 | 1015.0 |
| 20260507070535 | 62 | 286 | 1.0 | 4.0 | 0.00 | 0.00 | 0.00 | 46 | 1015.0 |
| 20260507065518 | 63 | 253 | 3.0 | 13.0 | 0.00 | 0.00 | 0.00 | 47 | 1014.8 |
| 20260507064536 | 63 | 190 | 2.0 | 8.0 | 0.00 | 0.00 | 0.00 | 47 | 1014.7 |
| 20260507063517 | 63 | 218 | 3.0 | 13.0 | 0.00 | 0.00 | 0.00 | 47 | 1014.4 |
| 20260507062516 | 62 | 196 | 3.0 | 10.0 | 0.00 | 0.00 | 0.00 | 47 | 1014.3 |
| 20260507061515 | 63 | 237 | 1.0 | 3.0 | 0.00 | 0.00 | 0.00 | 47 | 1014.4 |
| 20260507060517 | 64 | 246 | 2.0 | 7.0 | 0.00 | 0.00 | 0.00 | 47 | 1014.3 |
| 20260507055515 | 65 | 244 | 2.0 | 7.0 | 0.00 | 0.00 | 0.00 | 47 | 1014.3 |
| 20260507054536 | 66 | 268 | 1.0 | 3.0 | 0.00 | 0.00 | 0.00 | 47 | 1014.1 |
| 20260507053516 | 67 | 277 | 2.0 | 6.0 | 0.00 | 0.00 | 0.00 | 47 | 1014.0 |
| 20260507052517 | 67 | 271 | 1.0 | 6.0 | 0.00 | 0.00 | 0.00 | 47 | 1013.9 |
| 20260507051521 | 66 | 263 | 1.0 | 6.0 | 0.00 | 0.00 | 0.00 | 48 | 1013.9 |
| 20260507050516 | 66 | 249 | 1.0 | 7.0 | 0.00 | 0.00 | 0.00 | 48 | 1014.0 |
| 20260507045536 | 67 | 51 | 1.0 | 3.0 | 0.00 | 0.00 | 0.00 | 48 | 1014.0 |
| 20260507044515 | 68 | 356 | 0.0 | 4.0 | 0.00 | 0.00 | 0.00 | 48 | 1013.9 |
| 20260507043515 | 67 | 325 | 0.0 | 2.0 | 0.00 | 0.00 | 0.00 | 48 | 1013.9 |
| 20260507042515 | 67 | 267 | 1.0 | 4.0 | 0.00 | 0.00 | 0.00 | 48 | 1013.9 |
| 20260507041515 | 68 | 275 | 1.0 | 6.0 | 0.00 | 0.00 | 0.00 | 48 | 1013.7 |
| 20260507040516 | 68 | 304 | 0.0 | 3.0 | 0.00 | 0.00 | 0.00 | 48 | 1013.4 |
| 20260507035520 | 69 | 307 | 0.0 | 3.0 | 0.00 | 0.00 | 0.00 | 49 | 1013.3 |
| 20260507034518 | 69 | 316 | 1.0 | 4.0 | 0.00 | 0.00 | 0.00 | 49 | 1013.2 |
| 20260507033540 | 70 | 301 | 0.0 | 4.0 | 0.00 | 0.00 | 0.00 | 49 | 1012.9 |
| 20260507032517 | 71 | 306 | 0.0 | 3.0 | 0.00 | 0.00 | 0.00 | 49 | 1012.8 |
| 20260507031517 | 72 | 330 | 0.0 | 1.0 | 0.00 | 0.00 | 0.00 | 49 | 1012.7 |
| 20260507030518 | 72 | 265 | 0.0 | 2.0 | 0.00 | 0.00 | 0.00 | 49 | 1012.5 |
| 20260507025516 | 73 | 346 | 0.0 | 3.0 | 0.00 | 0.00 | 0.00 | 49 | 1012.5 |
| 20260507024517 | 74 | 263 | 0.0 | 4.0 | 0.00 | 0.00 | 0.00 | 50 | 1012.5 |
| 20260507023515 | 75 | 273 | 0.0 | 1.0 | 0.00 | 0.00 | 0.00 | 50 | 1012.6 |
| 20260507022518 | 75 | 262 | 0.0 | 3.0 | 0.00 | 0.00 | 0.00 | 50 | 1012.6 |
| 20260507021537 | 75 | 265 | 1.0 | 8.0 | 0.00 | 0.00 | 0.00 | 51 | 1012.5 |
| 20260507020515 | 75 | 263 | 1.0 | 6.0 | 0.00 | 0.00 | 0.00 | 52 | 1012.4 |
| 20260507015515 | 76 | 274 | 1.0 | 9.0 | 0.00 | 0.00 | 0.00 | 55 | 1012.3 |
| 20260507014515 | 76 | 334 | 0.0 | 0.0 | 0.00 | 0.00 | 0.00 | 55 | 1012.3 |
| 20260507013516 | 77 | 179 | 0.0 | 1.0 | 0.00 | 0.00 | 0.00 | 55 | 1012.2 |
| 20260507012519 | 78 | 255 | 1.0 | 8.0 | 0.00 | 0.00 | 0.00 | 55 | 1012.2 |
| 20260507011517 | 78 | 260 | 1.0 | 5.0 | 0.00 | 0.00 | 0.00 | 55 | 1012.1 |
| 20260507010515 | 79 | 249 | 1.0 | 7.0 | 0.00 | 0.00 | 0.00 | 55 | 1012.1 |
| 20260507005515 | 80 | 246 | 0.0 | 0.0 | 0.00 | 0.00 | 0.00 | 55 | 1012.1 |
| 20260507004516 | 81 | 272 | 1.0 | 6.0 | 0.00 | 0.00 | 0.00 | 55 | 1012.1 |
| 20260507003515 | 82 | 348 | 0.0 | 3.0 | 0.00 | 0.00 | 0.00 | 55 | 1012.0 |
| 20260507002517 | 82 | 255 | 1.0 | 3.0 | 0.00 | 0.00 | 0.00 | 55 | 1012.0 |
| 20260507001517 | 83 | 145 | 0.0 | 1.0 | 0.00 | 0.00 | 0.00 | 55 | 1012.0 |
| 20260507000516 | 83 | 254 | 0.0 | 3.0 | 0.00 | 0.00 | 0.00 | 55 | 1011.9 |
| 20260506235518 | 83 | 225 | 0.0 | 2.0 | 0.00 | 0.00 | 0.00 | 55 | 1012.0 |
| 20260506234521 | 84 | 235 | 1.0 | 5.0 | 0.00 | 0.00 | 0.00 | 55 | 1012.0 |
| 20260506233516 | 85 | 0.0 | 0.0 | 0.00 | 0.00 | 0.00 | 56 | 1012.2 | |
| 20260506232516 | 85 | 253 | 0.0 | 4.0 | 0.00 | 0.00 | 0.00 | 56 | 1012.3 |
| 20260506231516 | 86 | 257 | 1.0 | 7.0 | 0.00 | 0.00 | 0.00 | 52 | 1012.3 |
| 20260506230517 | 87 | 227 | 2.0 | 11.0 | 0.00 | 0.00 | 0.00 | 53 | 1012.4 |
| 20260506225517 | 89 | 223 | 3.0 | 11.0 | 0.00 | 0.00 | 0.00 | 55 | 1012.5 |
| 20260506224518 | 90 | 242 | 2.0 | 11.0 | 0.00 | 0.00 | 0.00 | 59 | 1012.7 |
| 20260506223517 | 89 | 258 | 3.0 | 8.0 | 0.00 | 0.00 | 0.00 | 52 | 1012.7 |
| 20260506222517 | 88 | 295 | 2.0 | 10.0 | 0.00 | 0.00 | 0.00 | 55 | 1012.9 |
| 20260506221517 | 88 | 282 | 1.0 | 6.0 | 0.00 | 0.00 | 0.00 | 54 | 1013.0 |
| 20260506220516 | 89 | 298 | 1.0 | 4.0 | 0.00 | 0.00 | 0.00 | 54 | 1013.1 |
| 20260506215515 | 88 | 278 | 2.0 | 4.0 | 0.00 | 0.00 | 0.00 | 54 | 1013.3 |
| 20260506214515 | 90 | 247 | 3.0 | 10.0 | 0.00 | 0.00 | 0.00 | 54 | 1013.4 |
| 20260506213517 | 88 | 224 | 1.0 | 5.0 | 0.00 | 0.00 | 0.00 | 54 | 1013.4 |
| 20260506212517 | 86 | 240 | 3.0 | 10.0 | 0.00 | 0.00 | 0.00 | 50 | 1013.5 |
| 20260506211517 | 87 | 257 | 2.0 | 11.0 | 0.00 | 0.00 | 0.00 | 50 | 1013.6 |
| 20260506210519 | 86 | 276 | 2.0 | 8.0 | 0.00 | 0.00 | 0.00 | 51 | 1013.8 |
| 20260506205535 | 87 | 265 | 3.0 | 12.0 | 0.00 | 0.00 | 0.00 | 52 | 1013.7 |
| 20260506204517 | 89 | 248 | 3.0 | 8.0 | 0.00 | 0.00 | 0.00 | 57 | 1013.7 |
| 20260506203517 | 89 | 245 | 3.0 | 10.0 | 0.00 | 0.00 | 0.00 | 52 | 1013.8 |
| 20260506202538 | 88 | 278 | 2.0 | 14.0 | 0.00 | 0.00 | 0.00 | 50 | 1014.0 |
| 20260506201515 | 88 | 261 | 1.0 | 6.0 | 0.00 | 0.00 | 0.00 | 48 | 1014.0 |
| 20260506200516 | 87 | 276 | 2.0 | 9.0 | 0.00 | 0.00 | 0.00 | 48 | 1014.1 |
| 20260506195516 | 88 | 240 | 2.0 | 8.0 | 0.00 | 0.00 | 0.00 | 48 | 1014.2 |
| 20260506194515 | 86 | 237 | 4.0 | 10.0 | 0.00 | 0.00 | 0.00 | 48 | 1014.3 |
| 20260506193517 | 85 | 249 | 2.0 | 9.0 | 0.00 | 0.00 | 0.00 | 48 | 1014.4 |
| 20260506192516 | 83 | 288 | 3.0 | 11.0 | 0.00 | 0.00 | 0.00 | 48 | 1014.5 |